Yao current weather conditions

sailwx.info

Wind from 340 at 6 knots

Air temperature 3.0° C
Visibility: greater than 5.4 NM
Dewpoint -5.0° C

Last reported at 2014-Dec-18 10:00 UTC.
Time now 2014-Dec-18 23:48 UTC

Location: N 34°36' E 135°36'.
View on Google Maps.

See reports from other nearby stations

  
Tides and Currents Weather Stations Pressure Air Temp Water Temp Dewpoint Dewpoint Depression Visibility Wind Speed Wind Dir Waves Ship Positions
date/time (UTC)wind fromknots sea level pressurealtimeterstation pressurevisibilityair tempwater tempwave heightnotes
2014-Dec-18 10:00 340 6 5.4 3.0
2014-Dec-18 09:00 320 9 5.4 3.0
2014-Dec-18 08:00 340 10 5.4 4.0
2014-Dec-18 07:00 300 8 5.4 5.0
2014-Dec-18 06:00 300 11 5.4 4.0
2014-Dec-18 05:00 280 12 5.4 5.0
2014-Dec-18 04:00 270 15 5.4 5.0
2014-Dec-18 03:00 280 13 5.4 5.0
2014-Dec-18 02:00 280 14 5.4 4.0
2014-Dec-18 01:00 290 15 5.4 3.0
2014-Dec-18 00:00 270 14 5.4 2.0
2014-Dec-17 23:00 290 12 5.4 1.0
2014-Dec-17 10:00 280 16 5.4 1.0
2014-Dec-17 09:00 280 16 gusting 26 5.4 2.0
2014-Dec-17 08:00 280 19 5.4 2.0
2014-Dec-17 07:00 280 20 gusting 35 5.4 2.0 Light snow showers.
2014-Dec-17 06:00 280 18 5.4 2.0 Showers in the vicinity.
2014-Dec-17 05:00 280 20 5.4 3.0 Showers in the vicinity.
2014-Dec-17 04:00 280 20 5.4 3.0 Showers in the vicinity.
2014-Dec-17 03:00 270 33 5.4 3.0
2014-Dec-17 02:00 280 22 5.4 2.0
2014-Dec-17 01:00 280 22 gusting 32 5.4 2.0
2014-Dec-17 00:00 280 24 gusting 35 5.4 2.0
2014-Dec-16 23:00 270 25 gusting 36 5.4 2.0